This is the latest recevied weather packets stored in our database for station/object K7YVO. If no packets are shown the sender has not sent any weather packets the latest 10 day(s).
| Time | Temp. | Humidity | Pressure | Rain* | Wind** | Luminosity | Snow |
|---|---|---|---|---|---|---|---|
| 1777572911 | 21.11° C | 51% | 1020.1 hPa | 0 mm | - | 358 W/m² | - |
| 1777572607 | 21.11° C | 51% | 1020.1 hPa | 0 mm | - | 340 W/m² | - |
| 1777572307 | 21.11° C | 45% | 1020.3 hPa | 0 mm | - | 311 W/m² | - |
| 1777572003 | 21.11° C | 46% | 1020.2 hPa | 0 mm | - | 261 W/m² | - |
| 1777571697 | 21.11° C | 45% | 1020.2 hPa | 0 mm | - | 268 W/m² | - |
| 1777571396 | 21.11° C | 45% | 1020.1 hPa | 0 mm | - | 277 W/m² | - |
| 1777571091 | 21.11° C | 46% | 1020.3 hPa | 0 mm | - | 261 W/m² | - |
| 1777570787 | 21.11° C | 47% | 1020.3 hPa | 0 mm | - | 294 W/m² | - |
| 1777570483 | 20.56° C | 46% | 1020.3 hPa | 0 mm | - | 342 W/m² | - |
| 1777570179 | 20.56° C | 48% | 1020.4 hPa | 0 mm | - | 545 W/m² | - |
| 1777569876 | 20° C | 47% | 1020.3 hPa | 0 mm | - | 479 W/m² | - |
| 1777569572 | 20° C | 48% | 1020.4 hPa | 0 mm | - | 323 W/m² | - |
| 1777569268 | 19.44° C | 48% | 1020.5 hPa | 0 mm | - | 210 W/m² | - |
| 1777568965 | 19.44° C | 48% | 1020.5 hPa | 0 mm | - | 190 W/m² | - |
| 1777568661 | 18.89° C | 47% | 1020.6 hPa | 0 mm | - | 169 W/m² | - |
| 1777568359 | 18.33° C | 47% | 1020.6 hPa | 0 mm | - | 152 W/m² | - |
| 1777568056 | 17.78° C | 47% | 1020.5 hPa | 0 mm | - | 136 W/m² | - |
| 1777567752 | 17.78° C | 48% | 1020.7 hPa | 0 mm | - | 122 W/m² | - |
| 1777567449 | 17.22° C | 49% | 1020.7 hPa | 0 mm | - | 112 W/m² | - |
| 1777567147 | 17.22° C | 51% | 1020.6 hPa | 0 mm | - | 104 W/m² | - |
| 1777566844 | 17.22° C | 50% | 1020.6 hPa | 0 mm | - | 93 W/m² | - |
| 1777566542 | 16.67° C | 49% | 1020.6 hPa | 0 mm | - | 86 W/m² | - |
| 1777566239 | 16.67° C | 51% | 1020.7 hPa | 0 mm | - | 83 W/m² | - |
| 1777565936 | 16.11° C | 52% | 1020.8 hPa | 0 mm | - | 79 W/m² | - |
| 1777565631 | 16.11° C | 57% | 1020.7 hPa | 0 mm | - | 76 W/m² | - |
* Rain latest hour (hover to see other rain measurements)
** Current wind speed in m/s (hover to see current wind gust speed)